Weather History for Ozona, TX

Change the Weather History Date:

Friday, April 12, 2013

  Actual Average Record
Temperature  
Mean Temperature 62 °F -  
Max Temperature 82 °F 78 °F 82 °F (2013)
Min Temperature 42 °F 51 °F 42 °F (2013)
Degree Days  
Heating Degree Days 3    
Growing Degree Days 12 (Base 50)    
Moisture  
Dew Point 33 °F    
Average Humidity 36    
Maximum Humidity 66    
Minimum Humidity 16    
Precipitation  
Precipitation 0.00 in - - ()
Sea Level Pressure  
Sea Level Pressure 29.89 in    
Wind  
Wind Speed 7 mph (SSE)    
Max Wind Speed 24 mph    
Max Gust Speed 31 mph    
Visibility 10 miles    
Events      
Averages and records for this station are not official NWS values.
T = Trace of Precipitation, MM = Missing Value Source: NWS Daily Summary

Daily Weather History Graph

Daily Weather History Graph

Search for Another Location

Airport:

Trip Planner

Search our weather history database for the weather conditions in past years. The results will help you decide how hot, cold, wet, or windy it might be!

Date:

Astronomy

Apr. 12, 2013 Rise Set
Actual Time 7:20 AM CDT 8:11 PM CDT
Civil Twilight 6:55 AM CDT 8:35 PM CDT
Nautical Twilight 6:26 AM CDT 9:04 PM CDT
Astronomical Twilight 5:56 AM CDT 9:34 PM CDT
Moon 8:40 AM CDT (4/12) 10:33 PM CDT (4/12)
Length of Visible Light 13h 39m
Length of Day
12h 50m
Waxing Crescent, 5% of the Moon is Illuminated
Apr 12
Waxing Crescent
Apr 18
First Quarter
Apr 25
Full
May 2
Last Quarter
May 9
New

Hourly Weather History & Observations

Time (CDT) Temp. Windchill Dew Point Humidity Pressure Visibility Wind Dir Wind Speed Gust Speed Precip Events Conditions
12:15 AM 48.2 °F - 23.0 °F 37% 29.90 in 10.0 mi Calm Calm - N/A   Clear
12:35 AM 46.4 °F - 23.0 °F 40% 29.90 in 10.0 mi Calm Calm - N/A   Clear
12:55 AM 46.4 °F 42.9 °F 23.0 °F 40% 29.90 in 10.0 mi North 6.9 mph - N/A   Clear
1:15 AM 44.6 °F 40.7 °F 23.0 °F 43% 29.89 in 10.0 mi NNE 6.9 mph - N/A   Clear
1:35 AM 44.6 °F - 23.0 °F 43% 29.90 in 10.0 mi Calm Calm - N/A   Clear
1:55 AM 44.6 °F - 23.0 °F 43% 29.91 in 10.0 mi Calm Calm - N/A   Clear
2:15 AM 42.8 °F - 24.8 °F 49% 29.91 in 10.0 mi Calm Calm - N/A   Clear
2:35 AM 44.6 °F - 24.8 °F 46% 29.89 in 10.0 mi Calm Calm - N/A   Clear
2:55 AM 44.6 °F - 26.6 °F 49% 29.89 in 10.0 mi Calm Calm - N/A   Clear
3:15 AM 42.8 °F - 24.8 °F 49% 29.89 in 10.0 mi Calm Calm - N/A   Clear
3:35 AM 42.8 °F - 26.6 °F 53% 29.88 in 10.0 mi Calm Calm - N/A   Clear
3:55 AM 42.8 °F - 26.6 °F 53% 29.88 in 10.0 mi Calm Calm - N/A   Clear
4:15 AM 42.8 °F - 26.6 °F 53% 29.89 in 10.0 mi Calm Calm - N/A   Clear
4:35 AM 44.6 °F - 28.4 °F 53% 29.89 in 10.0 mi Calm Calm - N/A   Clear
4:55 AM 44.6 °F - 30.2 °F 57% 29.89 in 10.0 mi Calm Calm - N/A   Clear
5:15 AM 44.6 °F 42.2 °F 30.2 °F 57% 29.89 in 10.0 mi SSE 4.6 mph - N/A   Clear
5:35 AM 46.4 °F 43.5 °F 32.0 °F 57% 29.90 in 10.0 mi SSE 5.8 mph - N/A   Clear
5:55 AM 51.8 °F - 35.6 °F 54% 29.91 in 10.0 mi SSE 8.1 mph - N/A   Clear
6:15 AM 51.8 °F - 35.6 °F 54% 29.91 in 10.0 mi South 5.8 mph - N/A   Clear
6:35 AM 50.0 °F - 35.6 °F 58% 29.91 in 10.0 mi SSE 4.6 mph - N/A   Clear
6:55 AM 50.0 °F - 35.6 °F 58% 29.91 in 10.0 mi Calm Calm - N/A   Clear
7:15 AM 48.2 °F - 35.6 °F 62% 29.92 in 10.0 mi SE 3.5 mph - N/A   Clear
7:35 AM 44.6 °F 43.1 °F 33.8 °F 66% 29.92 in 10.0 mi SSE 3.5 mph - N/A   Clear
7:55 AM 46.4 °F - 35.6 °F 66% 29.93 in 10.0 mi Calm Calm - N/A   Clear
8:15 AM 50.0 °F - 35.6 °F 58% 29.94 in 10.0 mi Calm Calm - N/A   Clear
8:35 AM 53.6 °F - 37.4 °F 54% 29.95 in 10.0 mi SSE 6.9 mph - N/A   Clear
8:55 AM 55.4 °F - 37.4 °F 51% 29.95 in 10.0 mi South 10.4 mph - N/A   Clear
9:15 AM 59.0 °F - 37.4 °F 45% 29.96 in 10.0 mi SSE 11.5 mph - N/A   Clear
9:55 AM 62.6 °F - 37.4 °F 39% 29.97 in 10.0 mi South 11.5 mph - N/A   Clear
10:15 AM 64.4 °F - 37.4 °F 37% 29.96 in 10.0 mi South 12.7 mph - N/A   Clear
10:35 AM 66.2 °F - 37.4 °F 35% 29.96 in 10.0 mi South 17.3 mph 21.9 mph N/A   Clear
10:55 AM 68.0 °F - 37.4 °F 33% 29.96 in 10.0 mi South 17.3 mph 25.3 mph N/A   Clear
11:15 AM 68.0 °F - 39.2 °F 35% 29.96 in 10.0 mi South 15.0 mph 24.2 mph N/A   Clear
11:35 AM 69.8 °F - 39.2 °F 33% 29.96 in 10.0 mi South 13.8 mph 23.0 mph N/A   Clear
11:55 AM 71.6 °F - 39.2 °F 31% 29.96 in 10.0 mi South 17.3 mph 25.3 mph N/A   Clear
12:15 PM 71.6 °F - 39.2 °F 31% 29.95 in 10.0 mi SSE 17.3 mph 24.2 mph N/A   Clear
12:35 PM 73.4 °F - 37.4 °F 27% 29.95 in 10.0 mi South 17.3 mph 27.6 mph N/A   Clear
12:55 PM 73.4 °F - 37.4 °F 27% 29.94 in 10.0 mi South 21.9 mph 31.1 mph N/A   Clear
1:15 PM 75.2 °F - 39.2 °F 27% 29.93 in 10.0 mi South 24.2 mph 28.8 mph N/A   Clear
1:35 PM 75.2 °F - 39.2 °F 27% 29.93 in 10.0 mi South 19.6 mph 25.3 mph N/A   Clear
1:55 PM 77.0 °F - 39.2 °F 26% 29.92 in 10.0 mi SSE 18.4 mph 26.5 mph N/A   Clear
2:15 PM 77.0 °F - 37.4 °F 24% 29.91 in 10.0 mi South 15.0 mph 25.3 mph N/A   Clear
2:35 PM 78.8 °F - 37.4 °F 23% 29.90 in 10.0 mi South 13.8 mph 25.3 mph N/A   Clear
2:55 PM 78.8 °F - 37.4 °F 23% 29.89 in 10.0 mi South 18.4 mph 26.5 mph N/A   Clear
3:15 PM 78.8 °F - 35.6 °F 21% 29.88 in 10.0 mi South 18.4 mph 25.3 mph N/A   Clear
3:35 PM 80.6 °F - 33.8 °F 18% 29.87 in 10.0 mi South 13.8 mph 25.3 mph N/A   Clear
3:55 PM 80.6 °F - 32.0 °F 17% 29.86 in 10.0 mi South 20.7 mph - N/A   Clear
4:15 PM 80.6 °F - 32.0 °F 17% 29.85 in 10.0 mi SSW 12.7 mph 24.2 mph N/A   Clear
4:35 PM 82.4 °F - 32.0 °F 16% 29.84 in 10.0 mi South 16.1 mph 23.0 mph N/A   Clear
4:55 PM 80.6 °F - 32.0 °F 17% 29.84 in 10.0 mi South 11.5 mph 23.0 mph N/A   Clear
5:15 PM 80.6 °F - 32.0 °F 17% 29.82 in 10.0 mi SSE 17.3 mph 25.3 mph N/A   Clear
5:35 PM 80.6 °F - 32.0 °F 17% 29.82 in 10.0 mi South 18.4 mph 24.2 mph N/A   Clear
5:55 PM 80.6 °F - 32.0 °F 17% 29.82 in 10.0 mi South 17.3 mph 21.9 mph N/A   Clear
6:15 PM 80.6 °F - 32.0 °F 17% 29.82 in 10.0 mi South 16.1 mph 23.0 mph N/A   Clear
6:35 PM 78.8 °F - 33.8 °F 20% 29.82 in 10.0 mi South 16.1 mph 20.7 mph N/A   Clear
6:55 PM 78.8 °F - 33.8 °F 20% 29.82 in 10.0 mi SSE 16.1 mph 20.7 mph N/A   Clear
7:15 PM 78.8 °F - 33.8 °F 20% 29.81 in 10.0 mi SSE 19.6 mph 24.2 mph N/A   Clear
7:35 PM 77.0 °F - 33.8 °F 21% 29.82 in 10.0 mi SSE 15.0 mph 23.0 mph N/A   Clear
7:55 PM 75.2 °F - 33.8 °F 22% 29.82 in 10.0 mi SSE 15.0 mph 19.6 mph N/A   Clear
8:15 PM 73.4 °F - 33.8 °F 23% 29.84 in 10.0 mi South 11.5 mph 18.4 mph N/A   Clear
8:35 PM 73.4 °F - 35.6 °F 25% 29.84 in 10.0 mi South 11.5 mph 17.3 mph N/A   Clear
8:55 PM 71.6 °F - 35.6 °F 27% 29.85 in 10.0 mi South 12.7 mph 17.3 mph N/A   Clear
9:15 PM 71.6 °F - 35.6 °F 27% 29.86 in 10.0 mi SSE 10.4 mph - N/A   Clear
9:35 PM 69.8 °F - 35.6 °F 28% 29.87 in 10.0 mi SSE 9.2 mph - N/A   Clear
9:55 PM 69.8 °F - 35.6 °F 28% 29.87 in 10.0 mi SSE 9.2 mph - N/A   Clear
10:15 PM 68.0 °F - 35.6 °F 30% 29.88 in 10.0 mi SE 5.8 mph - N/A   Clear
10:35 PM 68.0 °F - 35.6 °F 30% 29.89 in 10.0 mi SE 6.9 mph - N/A   Clear
10:55 PM 68.0 °F - 35.6 °F 30% 29.89 in 10.0 mi SE 8.1 mph - N/A   Clear
11:15 PM 68.0 °F - 35.6 °F 30% 29.90 in 10.0 mi SE 9.2 mph - N/A   Clear
11:35 PM 66.2 °F - 35.6 °F 32% 29.90 in 10.0 mi ESE 6.9 mph - N/A   Clear
11:55 PM 64.4 °F - 35.6 °F 34% 29.91 in 10.0 mi ESE 6.9 mph - N/A   Clear